,,,PA_Meas_PMT16A,,PR_Meas_QMR101_102,,RH_Meas_QMH101,,SR_Meas_QMS101,,TA_Meas_QMH101,,GenWind,,GenWind,
date,time,status,PA,status,PR,status,RH,status,SR,status,TA,status,DirAvg,status,SpdAvg,
2010-10-31, 00:00:04,VALID,1002.5,VALID,0,INVALID,163.746,VALID,0,VALID,23.1568,VALID,43,VALID,0.478125,
2010-10-31, 00:01:04,VALID,1002.51,VALID,0,INVALID,163.754,VALID,0,VALID,23.217,VALID,49,VALID,0.423047,
2010-10-31, 00:02:04,VALID,1002.49,VALID,0,INVALID,163.754,VALID,0,VALID,23.2152,VALID,49,VALID,0.461328,
2010-10-31, 00:03:04,VALID,1002.47,VALID,0,INVALID,163.739,VALID,0,VALID,23.2559,VALID,49,VALID,0.559375,
2010-10-31, 00:04:04,VALID,1002.49,VALID,0,INVALID,163.746,VALID,0,VALID,23.2347,VALID,49,VALID,0.500391,
2010-10-31, 00:05:04,VALID,1002.47,VALID,0,INVALID,163.739,VALID,0,VALID,23.2524,VALID,47,VALID,0.596094,
2010-10-31, 00:06:04,VALID,1002.46,VALID,0,INVALID,163.762,VALID,0,VALID,23.2541,VALID,47,VALID,0.659375,
2010-10-31, 00:07:04,VALID,1002.49,VALID,0,INVALID,163.739,VALID,0,VALID,23.2754,VALID,43,VALID,0.525781,
2010-10-31, 00:08:04,VALID,1002.46,VALID,0,INVALID,163.746,VALID,0,VALID,23.2559,VALID,43,VALID,0.497266,
2010-10-31, 00:09:04,VALID,1002.47,VALID,0,INVALID,163.701,VALID,0,VALID,23.2559,VALID,43,VALID,0.498047,
2010-10-31, 00:10:04,VALID,1002.44,VALID,0,INVALID,163.739,VALID,0,VALID,23.2347,VALID,43,VALID,0.521094,
2010-10-31, 00:11:04,VALID,1002.47,VALID,0,INVALID,163.723,VALID,0,VALID,23.2152,VALID,43,VALID,0.399219,
2010-10-31, 00:12:04,VALID,1002.46,VALID,0,INVALID,163.739,VALID,0,VALID,23.1957,VALID,43,VALID,0.323047,
2010-10-31, 00:13:04,VALID,1002.43,VALID,0,INVALID,163.746,VALID,0,VALID,23.2152,VALID,43,VALID,0.376563,
2010-10-31, 00:14:04,VALID,1002.41,VALID,0,INVALID,163.716,VALID,0,VALID,23.2347,VALID,43,VALID,0.446484,
2010-10-31, 00:15:04,VALID,1002.42,VALID,0,INVALID,163.754,VALID,0,VALID,23.2347,VALID,43,VALID,0.642969,
2010-10-31, 00:16:04,VALID,1002.41,VALID,0,INVALID,163.731,VALID,0,VALID,23.2347,VALID,43,VALID,0.449219,
2010-10-31, 00:17:04,VALID,1002.39,VALID,0,INVALID,163.746,VALID,0,VALID,23.2152,VALID,43,VALID,0.478125,
2010-10-31, 00:18:04,VALID,1002.41,VALID,0,INVALID,163.739,VALID,0,VALID,23.194,VALID,43,VALID,0.450391,
2010-10-31, 00:19:04,VALID,1002.4,VALID,0,INVALID,163.723,VALID,0,VALID,23.2152,VALID,43,VALID,0.379687,
2010-10-31, 00:20:04,VALID,1002.39,VALID,0,INVALID,163.731,VALID,0,VALID,23.1745,VALID,43,VALID,0.323047,
2010-10-31, 00:21:04,VALID,1002.42,VALID,0,INVALID,163.777,VALID,0,VALID,23.2152,VALID,43,VALID,0.41875,
2010-10-31, 00:22:04,VALID,1002.4,VALID,0,INVALID,163.708,VALID,0,VALID,23.1957,VALID,43,VALID,0.39375,
2010-10-31, 00:23:04,VALID,1002.37,VALID,0,INVALID,163.746,VALID,0,VALID,23.1957,VALID,43,VALID,0.514063,
2010-10-31, 00:24:04,VALID,1002.37,VALID,0,INVALID,163.739,VALID,0,VALID,23.217,VALID,43,VALID,0.666797,
2010-10-31, 00:25:04,VALID,1002.37,VALID,0,INVALID,163.746,VALID,0,VALID,23.2152,VALID,41,VALID,0.520312,
2010-10-31, 00:26:04,VALID,1002.35,VALID,0,INVALID,163.731,VALID,0,VALID,23.217,VALID,41,VALID,0.570703,
2010-10-31, 00:27:04,VALID,1002.36,VALID,0,INVALID,163.746,VALID,0,VALID,23.2152,VALID,41,VALID,0.311328,
2010-10-31, 00:28:04,VALID,1002.34,VALID,0,INVALID,163.739,VALID,0,VALID,23.1957,VALID,41,VALID,0.434766,
2010-10-31, 00:29:04,VALID,1002.37,VALID,0,INVALID,163.754,VALID,0,VALID,23.1745,VALID,41,VALID,0.53125,
2010-10-31, 00:30:04,VALID,1002.36,VALID,0,INVALID,163.739,VALID,0,VALID,23.194,VALID,41,VALID,0.259375,
2010-10-31, 00:31:04,VALID,1002.35,VALID,0,INVALID,163.746,VALID,0,VALID,23.2152,VALID,41,VALID,0.156641,
2010-10-31, 00:32:04,VALID,1002.34,VALID,0,INVALID,163.723,VALID,0,VALID,23.2754,VALID,41,VALID,0.389062,
2010-10-31, 00:33:04,VALID,1002.35,VALID,0,INVALID,163.739,VALID,0,VALID,23.2736,VALID,41,VALID,0.617188,
2010-10-31, 00:34:04,VALID,1002.33,VALID,0,INVALID,163.739,VALID,0,VALID,23.2948,VALID,41,VALID,0.580859,
2010-10-31, 00:35:04,VALID,1002.35,VALID,0,INVALID,163.723,VALID,0,VALID,23.2754,VALID,41,VALID,0.350781,
2010-10-31, 00:36:04,VALID,1002.33,VALID,0,INVALID,163.739,VALID,0,VALID,23.2347,VALID,41,VALID,0.554688,
2010-10-31, 00:37:04,VALID,1002.35,VALID,0,INVALID,163.746,VALID,0,VALID,23.2559,VALID,41,VALID,0.476172,
2010-10-31, 00:38:04,VALID,1002.34,VALID,0,INVALID,163.754,VALID,0,VALID,23.2559,VALID,41,VALID,0.641797,
2010-10-31, 00:39:04,VALID,1002.32,VALID,0,INVALID,163.716,VALID,0,VALID,23.2347,VALID,41,VALID,0.495313,
2010-10-31, 00:40:04,VALID,1002.32,VALID,0,INVALID,163.716,VALID,0,VALID,23.2347,VALID,41,VALID,0.589844,
2010-10-31, 00:41:04,VALID,1002.32,VALID,0,INVALID,163.754,VALID,0,VALID,23.194,VALID,41,VALID,0.444141,
2010-10-31, 00:42:04,VALID,1002.3,VALID,0,INVALID,163.754,VALID,0,VALID,23.2152,VALID,41,VALID,0.515234,
2010-10-31, 00:43:04,VALID,1002.31,VALID,0,INVALID,163.739,VALID,0,VALID,23.1551,VALID,41,VALID,0.505469,
2010-10-31, 00:44:04,VALID,1002.3,VALID,0,INVALID,163.746,VALID,0,VALID,23.1391,VALID,41,VALID,0.460938,
2010-10-31, 00:45:04,VALID,1002.31,VALID,0,INVALID,163.739,VALID,0,VALID,23.079,VALID,41,VALID,0.401563,
2010-10-31, 00:46:04,VALID,1002.31,VALID,0,INVALID,163.739,VALID,0,VALID,23.0613,VALID,41,VALID,0.3375,
2010-10-31, 00:47:04,VALID,1002.3,VALID,0,INVALID,163.739,VALID,0,VALID,23.0401,VALID,41,VALID,0.624219,
2010-10-31, 00:48:04,VALID,1002.28,VALID,0,INVALID,163.777,VALID,0,VALID,23.0206,VALID,41,VALID,0.536719,
2010-10-31, 00:49:04,VALID,1002.32,VALID,0,INVALID,163.754,VALID,0,VALID,23.0012,VALID,41,VALID,0.498047,
2010-10-31, 00:50:04,VALID,1002.3,VALID,0,INVALID,163.769,VALID,0,VALID,23.0224,VALID,41,VALID,0.406641,
2010-10-31, 00:51:04,VALID,1002.32,VALID,0,INVALID,163.762,VALID,0,VALID,22.9622,VALID,41,VALID,0.375391,
2010-10-31, 00:52:04,VALID,1002.31,VALID,0,INVALID,163.762,VALID,0,VALID,22.964,VALID,41,VALID,0.36875,
2010-10-31, 00:53:04,VALID,1002.31,VALID,0,INVALID,163.762,VALID,0,VALID,22.9233,VALID,41,VALID,0.309375,
2010-10-31, 00:54:04,VALID,1002.31,VALID,0,INVALID,163.739,VALID,0,VALID,22.9233,VALID,41,VALID,0.185156,
2010-10-31, 00:55:04,VALID,1002.32,VALID,0,INVALID,163.754,VALID,0,VALID,22.9233,VALID,41,VALID,0.352734,
2010-10-31, 00:56:04,VALID,1002.31,VALID,0,INVALID,163.777,VALID,0,VALID,22.9428,VALID,41,VALID,0.199609,
2010-10-31, 00:57:04,VALID,1002.32,VALID,0,INVALID,163.746,VALID,0,VALID,22.9622,VALID,41,VALID,0.183984,
2010-10-31, 00:58:04,VALID,1002.32,VALID,0,INVALID,163.746,VALID,0,VALID,22.9817,VALID,41,VALID,0.310156,
2010-10-31, 00:59:04,VALID,1002.33,VALID,0,INVALID,163.8,VALID,0,VALID,22.9817,VALID,41,VALID,0.301953,
2010-10-31, 01:00:04,VALID,1002.34,VALID,0,INVALID,163.746,VALID,0,VALID,22.9817,VALID,41,VALID,0.126563,
2010-10-31, 01:01:04,VALID,1002.34,VALID,0,INVALID,163.784,VALID,0,VALID,22.9817,VALID,41,VALID,0.205078,
2010-10-31, 01:02:04,VALID,1002.36,VALID,0,INVALID,163.769,VALID,0,VALID,23.0029,VALID,41,VALID,0.125781,
2010-10-31, 01:03:04,VALID,1002.35,VALID,0,INVALID,163.746,VALID,0,VALID,23.0012,VALID,41,VALID,0.285547,
2010-10-31, 01:04:04,VALID,1002.37,VALID,0,INVALID,163.777,VALID,0,VALID,23.0012,VALID,54,VALID,0.483594,
2010-10-31, 01:05:04,VALID,1002.37,VALID,0,INVALID,163.739,VALID,0,VALID,23.0595,VALID,55,VALID,0.392578,
2010-10-31, 01:06:04,VALID,1002.37,VALID,0,INVALID,163.754,VALID,0,VALID,23.1179,VALID,55,VALID,0.508203,
2010-10-31, 01:07:04,VALID,1002.4,VALID,0,INVALID,163.762,VALID,0,VALID,23.1568,VALID,55,VALID,0.654688,
2010-10-31, 01:08:04,VALID,1002.4,VALID,0,INVALID,163.731,VALID,0,VALID,23.1957,VALID,55,VALID,0.458984,
2010-10-31, 01:09:04,VALID,1002.39,VALID,0,INVALID,163.739,VALID,0.100563,VALID,23.2347,VALID,54,VALID,0.503906,
2010-10-31, 01:10:04,VALID,1002.43,VALID,0,INVALID,163.716,VALID,0,VALID,23.2347,VALID,54,VALID,0.6375,
2010-10-31, 01:11:04,VALID,1002.43,VALID,0,INVALID,163.762,VALID,0,VALID,23.2347,VALID,53,VALID,0.585938,
2010-10-31, 01:12:04,VALID,1002.41,VALID,0,INVALID,163.754,VALID,0,VALID,23.2347,VALID,53,VALID,0.585938,
2010-10-31, 01:13:04,VALID,1002.42,VALID,0,INVALID,163.746,VALID,0,VALID,23.2134,VALID,53,VALID,0.496094,
2010-10-31, 01:14:04,VALID,1002.41,VALID,0,INVALID,163.731,VALID,0,VALID,23.2152,VALID,50,VALID,0.698047,
2010-10-31, 01:15:04,VALID,1002.4,VALID,0,INVALID,163.701,VALID,0,VALID,23.1763,VALID,50,VALID,0.516406,
2010-10-31, 01:16:04,VALID,1002.42,VALID,0,INVALID,163.731,VALID,0,VALID,23.1568,VALID,50,VALID,0.728906,
2010-10-31, 01:17:04,VALID,1002.42,VALID,0,INVALID,163.746,VALID,0,VALID,23.1586,VALID,50,VALID,0.632422,
2010-10-31, 01:18:04,VALID,1002.44,VALID,0,INVALID,163.746,VALID,0,VALID,23.1374,VALID,50,VALID,0.632422,
2010-10-31, 01:19:04,VALID,1002.44,VALID,0,INVALID,163.754,VALID,0,VALID,23.0984,VALID,50,VALID,0.7,
2010-10-31, 01:20:04,VALID,1002.44,VALID,0,INVALID,163.754,VALID,0,VALID,23.0984,VALID,50,VALID,0.694922,
2010-10-31, 01:21:04,VALID,1002.46,VALID,0,INVALID,163.746,VALID,0,VALID,23.0984,VALID,50,VALID,0.627344,
2010-10-31, 01:22:04,VALID,1002.46,VALID,0,INVALID,163.739,VALID,0,VALID,23.079,VALID,50,VALID,0.472656,
2010-10-31, 01:23:04,VALID,1002.45,VALID,0,INVALID,163.754,VALID,0,VALID,23.1179,VALID,50,VALID,0.542578,
2010-10-31, 01:24:04,VALID,1002.48,VALID,0,INVALID,163.754,VALID,0,VALID,23.1586,VALID,50,VALID,0.475,
2010-10-31, 01:25:04,VALID,1002.47,VALID,0,INVALID,163.762,VALID,0,VALID,23.178,VALID,50,VALID,0.421484,
2010-10-31, 01:26:04,VALID,1002.46,VALID,0,INVALID,163.746,VALID,0,VALID,23.1586,VALID,50,VALID,0.487891,
2010-10-31, 01:27:04,VALID,1002.46,VALID,0,INVALID,163.739,VALID,0,VALID,23.1763,VALID,46,VALID,0.522266,
2010-10-31, 01:28:04,VALID,1002.47,VALID,0,INVALID,163.746,VALID,0,VALID,23.1568,VALID,46,VALID,0.519141,
2010-10-31, 01:29:04,VALID,1002.48,VALID,0,INVALID,163.769,VALID,0,VALID,23.1374,VALID,44,VALID,0.516406,
2010-10-31, 01:30:04,VALID,1002.47,VALID,0,INVALID,163.762,VALID,0,VALID,23.1586,VALID,40,VALID,0.521094,
2010-10-31, 01:31:04,VALID,1002.48,VALID,0,INVALID,163.754,VALID,0,VALID,23.1179,VALID,39,VALID,0.544922,
2010-10-31, 01:32:04,VALID,1002.48,VALID,0,INVALID,163.739,VALID,0,VALID,23.1179,VALID,39,VALID,0.348828,
2010-10-31, 01:33:04,VALID,1002.49,VALID,0,INVALID,163.754,VALID,0,VALID,23.1179,VALID,39,VALID,0.339063,
2010-10-31, 01:34:04,VALID,1002.5,VALID,0,INVALID,163.746,VALID,0,VALID,23.1586,VALID,39,VALID,0.634766,
2010-10-31, 01:35:04,VALID,1002.54,VALID,0,INVALID,163.731,VALID,0,VALID,23.178,VALID,39,VALID,0.585547,
2010-10-31, 01:36:04,VALID,1002.54,VALID,0,INVALID,163.762,VALID,0,VALID,23.1162,VALID,39,VALID,0.680859,
2010-10-31, 01:37:04,VALID,1002.53,VALID,0,INVALID,163.746,VALID,0,VALID,23.1568,VALID,39,VALID,0.58125,
2010-10-31, 01:38:04,VALID,1002.56,VALID,0,INVALID,163.746,VALID,0,VALID,23.1763,VALID,39,VALID,0.571875,
2010-10-31, 01:39:04,VALID,1002.55,VALID,0,INVALID,163.746,VALID,0,VALID,23.1568,VALID,39,VALID,0.396875,
2010-10-31, 01:40:04,VALID,1002.57,VALID,0,INVALID,163.746,VALID,0,VALID,23.1374,VALID,39,VALID,0.483984,
2010-10-31, 01:41:04,VALID,1002.57,VALID,0,INVALID,163.746,VALID,0,VALID,23.1374,VALID,40,VALID,0.523047,
2010-10-31, 01:42:04,VALID,1002.56,VALID,0,INVALID,163.754,VALID,0,VALID,23.1586,VALID,40,VALID,0.48125,
2010-10-31, 01:43:04,VALID,1002.55,VALID,0,INVALID,163.746,VALID,0,VALID,23.1568,VALID,79,VALID,0.194922,
2010-10-31, 01:44:04,VALID,1002.55,VALID,0,INVALID,163.746,VALID,0,VALID,23.1763,VALID,79,VALID,0.301172,
2010-10-31, 01:45:04,VALID,1002.56,VALID,0,INVALID,163.739,VALID,0,VALID,23.1957,VALID,79,VALID,0.323438,
2010-10-31, 01:46:04,VALID,1002.52,VALID,0,INVALID,163.739,VALID,0,VALID,23.2152,VALID,73,VALID,0.488672,
2010-10-31, 01:47:04,VALID,1002.52,VALID,0,INVALID,163.739,VALID,0,VALID,23.2559,VALID,73,VALID,0.491406,
2010-10-31, 01:48:04,VALID,1002.53,VALID,0,INVALID,163.746,VALID,0,VALID,23.2559,VALID,73,VALID,0.530859,
2010-10-31, 01:49:04,VALID,1002.54,VALID,0,INVALID,163.731,VALID,0,VALID,23.2347,VALID,72,VALID,0.589844,
2010-10-31, 01:50:04,VALID,1002.51,VALID,0,INVALID,163.746,VALID,0,VALID,23.2347,VALID,49,VALID,0.501953,
2010-10-31, 01:51:04,VALID,1002.53,VALID,0,INVALID,163.754,VALID,0,VALID,23.2347,VALID,49,VALID,0.519141,
2010-10-31, 01:52:04,VALID,1002.52,VALID,0,INVALID,163.739,VALID,0,VALID,23.2364,VALID,49,VALID,0.407813,
2010-10-31, 01:53:04,VALID,1002.52,VALID,0,INVALID,163.769,VALID,0,VALID,23.2152,VALID,45,VALID,0.480078,
2010-10-31, 01:54:04,VALID,1002.55,VALID,0,INVALID,163.739,VALID,0,VALID,23.2364,VALID,45,VALID,0.510547,
2010-10-31, 01:55:04,VALID,1002.54,VALID,0,INVALID,163.731,VALID,0,VALID,23.1975,VALID,45,VALID,0.473047,
2010-10-31, 01:56:04,VALID,1002.56,VALID,0,INVALID,163.762,VALID,0,VALID,23.1957,VALID,40,VALID,0.666406,
2010-10-31, 01:57:04,VALID,1002.56,VALID,0,INVALID,163.739,VALID,0,VALID,23.1957,VALID,39,VALID,0.485156,
2010-10-31, 01:58:04,VALID,1002.55,VALID,0,INVALID,163.777,VALID,0,VALID,23.1975,VALID,37,VALID,0.635547,
2010-10-31, 01:59:04,VALID,1002.58,VALID,0,INVALID,163.739,VALID,0,VALID,23.1957,VALID,36,VALID,0.679688,
2010-10-31, 02:00:04,VALID,1002.6,VALID,0,INVALID,163.746,VALID,0,VALID,23.1957,VALID,36,VALID,0.515625,
2010-10-31, 02:01:04,VALID,1002.59,VALID,0,INVALID,163.754,VALID,0,VALID,23.1763,VALID,36,VALID,0.400391,
2010-10-31, 02:02:04,VALID,1002.6,VALID,0,INVALID,163.731,VALID,0,VALID,23.2364,VALID,36,VALID,0.332812,
2010-10-31, 02:03:04,VALID,1002.62,VALID,0,INVALID,163.739,VALID,0,VALID,23.1957,VALID,36,VALID,0.486328,
2010-10-31, 02:04:04,VALID,1002.64,VALID,0,INVALID,163.746,VALID,0,VALID,23.2347,VALID,36,VALID,0.304688,
2010-10-31, 02:05:04,VALID,1002.69,VALID,0,INVALID,163.754,VALID,0,VALID,23.2347,VALID,36,VALID,0.303906,
2010-10-31, 02:06:04,VALID,1002.68,VALID,0,INVALID,163.739,VALID,0,VALID,23.2736,VALID,36,VALID,0.486328,
2010-10-31, 02:07:04,VALID,1002.7,VALID,0,INVALID,163.754,VALID,0,VALID,23.2931,VALID,36,VALID,0.366797,
2010-10-31, 02:08:04,VALID,1002.72,VALID,0,INVALID,163.723,VALID,0,VALID,23.3143,VALID,36,VALID,0.158594,
2010-10-31, 02:09:04,VALID,1002.72,VALID,0,INVALID,163.746,VALID,0,VALID,23.332,VALID,36,VALID,0.292969,
2010-10-31, 02:10:04,VALID,1002.75,VALID,0,INVALID,163.716,VALID,0,VALID,23.3514,VALID,36,VALID,0.374219,
2010-10-31, 02:11:04,VALID,1002.74,VALID,0,INVALID,163.731,VALID,0,VALID,23.3904,VALID,36,VALID,0.514063,
2010-10-31, 02:12:04,VALID,1002.75,VALID,0,INVALID,163.746,VALID,0,VALID,23.3497,VALID,36,VALID,0.546094,
2010-10-31, 02:13:04,VALID,1002.73,VALID,0,INVALID,163.701,VALID,0.100563,VALID,23.3709,VALID,38,VALID,0.828516,
2010-10-31, 02:14:04,VALID,1002.75,VALID,0,INVALID,163.746,VALID,0,VALID,23.3709,VALID,45,VALID,0.483594,
2010-10-31, 02:15:04,VALID,1002.74,VALID,0,INVALID,163.762,VALID,0,VALID,23.4098,VALID,45,VALID,0.492188,
2010-10-31, 02:16:04,VALID,1002.77,VALID,0,INVALID,163.723,VALID,0,VALID,23.4293,VALID,45,VALID,0.257813,
2010-10-31, 02:17:04,VALID,1002.8,VALID,0,INVALID,163.731,VALID,0,VALID,23.4293,VALID,45,VALID,0.259766,
2010-10-31, 02:18:04,VALID,1002.83,VALID,0,INVALID,163.731,VALID,0,VALID,23.4505,VALID,57,VALID,0.376953,
2010-10-31, 02:19:04,VALID,1002.86,VALID,0,INVALID,163.731,VALID,0,VALID,23.4505,VALID,57,VALID,0.273438,
2010-10-31, 02:20:04,VALID,1002.87,VALID,0,INVALID,163.746,VALID,0,VALID,23.4275,VALID,56,VALID,0.294141,
2010-10-31, 02:21:04,VALID,1002.91,VALID,0,INVALID,163.731,VALID,0,VALID,23.47,VALID,56,VALID,0.241016,
2010-10-31, 02:22:04,VALID,1002.93,VALID,0,INVALID,163.739,VALID,0,VALID,23.4682,VALID,76,VALID,0.258594,
2010-10-31, 02:23:04,VALID,1002.97,VALID,0,INVALID,163.716,VALID,0,VALID,23.4682,VALID,76,VALID,0,
2010-10-31, 02:24:04,VALID,1002.99,VALID,0,INVALID,163.708,VALID,0,VALID,23.4487,VALID,76,VALID,0,
2010-10-31, 02:25:04,VALID,1003,VALID,0,INVALID,163.739,VALID,0,VALID,23.4487,VALID,77,VALID,0.0429688,
2010-10-31, 02:26:04,VALID,1003.02,VALID,0,INVALID,163.731,VALID,0,VALID,23.4682,VALID,77,VALID,0.328516,
2010-10-31, 02:27:04,VALID,1003.06,VALID,0,INVALID,163.739,VALID,0,VALID,23.447,VALID,77,VALID,0.260547,
2010-10-31, 02:28:04,VALID,1003.08,VALID,0,INVALID,163.716,VALID,0,VALID,23.4877,VALID,77,VALID,0.244531,
2010-10-31, 02:29:04,VALID,1003.08,VALID,0,INVALID,163.731,VALID,0,VALID,23.4877,VALID,77,VALID,0,
2010-10-31, 02:30:04,VALID,1003.12,VALID,0,INVALID,163.723,VALID,0,VALID,23.4664,VALID,77,VALID,0.304297,
2010-10-31, 02:31:04,VALID,1003.16,VALID,0,INVALID,163.739,VALID,0,VALID,23.447,VALID,77,VALID,0.160938,
2010-10-31, 02:32:04,VALID,1003.12,VALID,0,INVALID,163.746,VALID,0,VALID,23.4682,VALID,77,VALID,0.0648438,
2010-10-31, 02:33:04,VALID,1003.15,VALID,0,INVALID,163.723,VALID,0,VALID,23.4487,VALID,77,VALID,0.003125,
2010-10-31, 02:34:04,VALID,1003.19,VALID,0,INVALID,163.708,VALID,0,VALID,23.4293,VALID,77,VALID,0.176953,
2010-10-31, 02:35:04,VALID,1003.19,VALID,0,INVALID,163.723,VALID,0,VALID,23.4098,VALID,77,VALID,0.335938,
2010-10-31, 02:36:04,VALID,1003.19,VALID,0,INVALID,163.746,VALID,0,VALID,23.3921,VALID,77,VALID,0.364453,
2010-10-31, 02:37:04,VALID,1003.2,VALID,0,INVALID,163.716,VALID,0,VALID,23.3709,VALID,77,VALID,0.310156,
2010-10-31, 02:38:04,VALID,1003.23,VALID,0,INVALID,163.723,VALID,0,VALID,23.332,VALID,77,VALID,0.355078,
2010-10-31, 02:39:04,VALID,1003.19,VALID,0,INVALID,163.723,VALID,0,VALID,23.3125,VALID,77,VALID,0.285937,
2010-10-31, 02:40:04,VALID,1003.16,VALID,0,INVALID,163.731,VALID,0,VALID,23.2541,VALID,75,VALID,0.356641,
2010-10-31, 02:41:04,VALID,1003.15,VALID,0,INVALID,163.769,VALID,0,VALID,23.2152,VALID,43,VALID,0.607031,
2010-10-31, 02:42:04,VALID,1003.11,VALID,0,INVALID,163.746,VALID,0,VALID,23.1763,VALID,43,VALID,0.580469,
2010-10-31, 02:43:04,VALID,1003.11,VALID,0,INVALID,163.746,VALID,0,VALID,23.1374,VALID,42,VALID,0.646875,
2010-10-31, 02:44:04,VALID,1003.1,VALID,0,INVALID,163.754,VALID,0,VALID,23.0984,VALID,42,VALID,0.604688,
2010-10-31, 02:45:04,VALID,1003.08,VALID,0,INVALID,163.769,VALID,0,VALID,23.079,VALID,42,VALID,0.557422,
2010-10-31, 02:46:04,VALID,1003.11,VALID,0,INVALID,163.762,VALID,0,VALID,23.079,VALID,42,VALID,0.379687,
2010-10-31, 02:47:04,VALID,1003.14,VALID,0,INVALID,163.777,VALID,0,VALID,23.0578,VALID,42,VALID,0.288672,
2010-10-31, 02:48:04,VALID,1003.14,VALID,0,INVALID,163.762,VALID,0,VALID,23.1002,VALID,42,VALID,0.409766,
2010-10-31, 02:49:04,VALID,1003.16,VALID,0,INVALID,163.754,VALID,0,VALID,23.1002,VALID,42,VALID,0.376563,
2010-10-31, 02:50:04,VALID,1003.16,VALID,0,INVALID,163.754,VALID,0,VALID,23.1179,VALID,68,VALID,0.3125,
2010-10-31, 02:51:04,VALID,1003.16,VALID,0,INVALID,163.762,VALID,0,VALID,23.1374,VALID,65,VALID,0.580469,
2010-10-31, 02:52:04,VALID,1003.16,VALID,0,INVALID,163.731,VALID,0,VALID,23.1374,VALID,39,VALID,0.596484,
2010-10-31, 02:53:04,VALID,1003.15,VALID,0,INVALID,163.754,VALID,0,VALID,23.1162,VALID,39,VALID,0.457422,
2010-10-31, 02:54:04,VALID,1003.14,VALID,0,INVALID,163.769,VALID,0,VALID,23.1179,VALID,39,VALID,0.529297,
2010-10-31, 02:55:04,VALID,1003.15,VALID,0,INVALID,163.754,VALID,0,VALID,23.0984,VALID,39,VALID,0.515625,
2010-10-31, 02:56:04,VALID,1003.18,VALID,0,INVALID,163.777,VALID,0,VALID,23.1179,VALID,39,VALID,0.373828,
2010-10-31, 02:57:04,VALID,1003.18,VALID,0,INVALID,163.762,VALID,0,VALID,23.0595,VALID,39,VALID,0.370313,
2010-10-31, 02:58:04,VALID,1003.22,VALID,0,INVALID,163.746,VALID,0,VALID,23.0401,VALID,39,VALID,0.386719,
2010-10-31, 02:59:04,VALID,1003.2,VALID,0,INVALID,163.746,VALID,0,VALID,22.9994,VALID,39,VALID,0.335938,
2010-10-31, 03:00:04,VALID,1003.27,VALID,0,INVALID,163.746,VALID,0,VALID,22.98,VALID,49,VALID,0.302344,
2010-10-31, 03:01:04,VALID,1003.27,VALID,0,INVALID,163.784,VALID,0,VALID,23.0012,VALID,49,VALID,0.403516,
2010-10-31, 03:02:04,VALID,1003.28,VALID,0,INVALID,163.746,VALID,0,VALID,22.9817,VALID,49,VALID,0.375,
2010-10-31, 03:03:04,VALID,1003.27,VALID,0,INVALID,163.784,VALID,0.100563,VALID,23.0012,VALID,49,VALID,0.393359,
2010-10-31, 03:04:04,VALID,1003.29,VALID,0,INVALID,163.746,VALID,0.201126,VALID,22.9994,VALID,49,VALID,0.221484,
2010-10-31, 03:05:04,VALID,1003.3,VALID,0,INVALID,163.762,VALID,0.201126,VALID,23.0613,VALID,49,VALID,0.415625,
2010-10-31, 03:06:04,VALID,1003.29,VALID,0,INVALID,163.769,VALID,0.301689,VALID,23.0383,VALID,49,VALID,0.453516,
2010-10-31, 03:07:04,VALID,1003.33,VALID,0,INVALID,163.754,VALID,0.402252,VALID,23.0984,VALID,49,VALID,0.426562,
2010-10-31, 03:08:04,VALID,1003.32,VALID,0,INVALID,163.762,VALID,0.502815,VALID,23.0984,VALID,49,VALID,0.501562,
2010-10-31, 03:09:04,VALID,1003.35,VALID,0,INVALID,163.762,VALID,0.502815,VALID,23.1197,VALID,49,VALID,0.613281,
2010-10-31, 03:10:04,VALID,1003.36,VALID,0,INVALID,163.777,VALID,0.703941,VALID,23.0984,VALID,48,VALID,0.701563,
2010-10-31, 03:11:04,VALID,1003.35,VALID,0,INVALID,163.754,VALID,0.703941,VALID,23.079,VALID,48,VALID,0.606641,
2010-10-31, 03:12:04,VALID,1003.38,VALID,0,INVALID,163.777,VALID,0.905066,VALID,23.0807,VALID,48,VALID,0.426562,
2010-10-31, 03:13:04,VALID,1003.4,VALID,0,INVALID,163.754,VALID,1.00563,VALID,23.079,VALID,45,VALID,0.585156,
2010-10-31, 03:14:04,VALID,1003.39,VALID,0,INVALID,163.777,VALID,1.20676,VALID,23.079,VALID,45,VALID,0.486719,
2010-10-31, 03:15:04,VALID,1003.38,VALID,0,INVALID,163.746,VALID,1.40788,VALID,23.0807,VALID,45,VALID,0.384766,
2010-10-31, 03:16:04,VALID,1003.38,VALID,0,INVALID,163.769,VALID,1.60901,VALID,23.1002,VALID,45,VALID,0.408594,
2010-10-31, 03:17:04,VALID,1003.41,VALID,0,INVALID,163.723,VALID,1.9107,VALID,23.0984,VALID,45,VALID,0.357422,
2010-10-31, 03:18:04,VALID,1003.39,VALID,0,INVALID,163.746,VALID,2.31295,VALID,23.0984,VALID,45,VALID,0.371875,
2010-10-31, 03:19:04,VALID,1003.42,VALID,0,INVALID,163.762,VALID,2.91633,VALID,23.1179,VALID,46,VALID,0.505859,
2010-10-31, 03:20:04,VALID,1003.44,VALID,0,INVALID,163.754,VALID,3.62027,VALID,23.1374,VALID,46,VALID,0.460156,
2010-10-31, 03:21:04,VALID,1003.43,VALID,0,INVALID,163.723,VALID,4.52533,VALID,23.1568,VALID,46,VALID,0.49375,
2010-10-31, 03:22:04,VALID,1003.46,VALID,0,INVALID,163.739,VALID,5.4304,VALID,23.1975,VALID,46,VALID,0.579297,
2010-10-31, 03:23:04,VALID,1003.46,VALID,0,INVALID,163.754,VALID,6.33547,VALID,23.1975,VALID,45,VALID,0.504687,
2010-10-31, 03:24:04,VALID,1003.46,VALID,0,INVALID,163.746,VALID,7.34109,VALID,23.1975,VALID,45,VALID,0.514844,
2010-10-31, 03:25:04,VALID,1003.47,VALID,0,INVALID,163.754,VALID,8.24616,VALID,23.1957,VALID,44,VALID,0.458984,
2010-10-31, 03:26:04,VALID,1003.49,VALID,0,INVALID,163.754,VALID,9.25179,VALID,23.2152,VALID,44,VALID,0.634766,
2010-10-31, 03:27:04,VALID,1003.5,VALID,0,INVALID,163.754,VALID,10.0563,VALID,23.2364,VALID,44,VALID,0.530469,
2010-10-31, 03:28:04,VALID,1003.52,VALID,0,INVALID,163.708,VALID,11.0619,VALID,23.2347,VALID,44,VALID,0.507813,
2010-10-31, 03:29:04,VALID,1003.55,VALID,0,INVALID,163.746,VALID,11.967,VALID,23.2559,VALID,46,VALID,0.391016,
2010-10-31, 03:30:04,VALID,1003.53,VALID,0,INVALID,163.731,VALID,12.7715,VALID,23.2559,VALID,35,VALID,0.578516,
2010-10-31, 03:31:04,VALID,1003.56,VALID,0,INVALID,163.746,VALID,13.6766,VALID,23.2541,VALID,35,VALID,0.501953,
2010-10-31, 03:32:04,VALID,1003.58,VALID,0,INVALID,163.762,VALID,14.5816,VALID,23.2524,VALID,35,VALID,0.517578,
2010-10-31, 03:33:04,VALID,1003.59,VALID,0,INVALID,163.739,VALID,15.3861,VALID,23.2948,VALID,36,VALID,0.330078,
2010-10-31, 03:34:04,VALID,1003.63,VALID,0,INVALID,163.731,VALID,16.1906,VALID,23.2931,VALID,13,VALID,0.506641,
2010-10-31, 03:35:04,VALID,1003.66,VALID,0,INVALID,163.754,VALID,17.0957,VALID,23.2931,VALID,13,VALID,0.448438,
2010-10-31, 03:36:04,VALID,1003.66,VALID,0,INVALID,163.731,VALID,18.0008,VALID,23.2931,VALID,13,VALID,0.338281,
2010-10-31, 03:37:04,VALID,1003.68,VALID,0,INVALID,163.716,VALID,18.9058,VALID,23.3125,VALID,13,VALID,0.238281,
2010-10-31, 03:38:04,VALID,1003.71,VALID,0,INVALID,163.731,VALID,19.8109,VALID,23.332,VALID,13,VALID,0.283203,
2010-10-31, 03:39:04,VALID,1003.73,VALID,0,INVALID,163.731,VALID,20.716,VALID,23.3514,VALID,14,VALID,0.508203,
2010-10-31, 03:40:04,VALID,1003.75,VALID,0,INVALID,163.739,VALID,21.8222,VALID,23.3709,VALID,14,VALID,0.323047,